sat.trackr.live / text

‹ back to catalog

STARLINK-33929

NORAD 64188 · 2025-113U

PAYLOAD ACTIVE UNKNOWN

§ Identity

Operator
Country
US
Launch date
2025-05-28
Launch site
AFETR
Launch vehicle
Mass (kg)
RCS (m²)

Purposes: comms

External: N2YO · Heavens-Above · Gunter

§ Orbital elements

Epoch: 2026-05-25T02:28:02.523072Z

Period
94.10 min
Inclination
53.1586°
Eccentricity
0.0001680
Mean motion
15.30221376 rev/d
Perigee alt
474.0 km
Apogee alt
476.3 km
Semi-major
6,853.3 km
B*
4.0449e-4
RAAN
96.2407°
Arg perigee
151.2182°
Mean anomaly
208.8912°
Rev number
5,676

§ Raw data

STARLINK-339291 64188U 25113U   26145.10280698  .00011647  00000+0  40449-3 0  99932 64188  53.1586  96.2407 0001680 151.2182 208.8912 15.30221376 56764

JSON: /api/v1/satellites/64188 · /tle

For live sub-satellite position, see the globe view (requires WebGL).

§ Visibility from observer

Set your observer location to see the next 7 days of passes ≥ 10°. The values pass through the URL so the page stays shareable.

No JS? Fill the form by hand. The geolocation button needs JavaScript.